[[{"header":{"parameterUnit":"m.s-1","parameterCategory":1,"la1":30.2991,"la2":30.254,"lo1":-89.0895,"lo2":-89.0444,"dy":0.0017,"dx":0.0017,"nx":28,"ny":28,"refTime":"2023-10-21T09:00:00:Z","depth":0,"parameterNumber":2,"parameterNumberName":"U-component_of_WINDS"},"data":[0,0,0,0,0,0,0,0,0,0,0,0,0,0,0,0,0,0,0,0,0,0,0,0,0,0,0,0,0,0,0,0,0,0,0,0,0,0,0,0,0,0,0,0,0,0,0,0,0,0,0,0,0,0,0,0,0,0,3.8965,3.8967,0,3.9111,3.9112,3.9114,3.9057,3.9053,3.905,3.9047,3.9198,3.9205,3.9212,0,0,0,0,0,0,0,0,0,0,0,0,0,3.8644,3.865,3.8965,3.8967,3.8969,3.911,3.9112,3.9114,3.9057,3.9053,3.9049,3.9045,3.9196,3.9204,3.9213,0,0,0,0,0,0,0,0,0,0,0,0,0,3.8786,3.8652,3.8965,3.8957,3.8958,3.911,3.9112,3.9115,3.9058,3.9053,3.9048,3.9043,3.9193,3.9203,3.9214,3.9382,0,0,3.9247,3.9251,0,0,0,0,0,0,0,0,3.8778,3.8798,3.8957,3.8958,3.8959,3.906,3.9054,3.9205,3.9059,3.902,3.9047,3.9041,3.9156,3.917,3.9208,3.9389,3.9396,3.9248,3.9254,3.9259,3.9262,0,0,0,0,0,0,0,3.8768,3.8791,3.9023,3.8959,3.8961,3.8949,3.8963,3.9083,3.9115,3.9023,3.9019,3.9037,3.9156,3.9198,3.9211,3.9398,3.9247,3.9257,3.9264,3.9268,3.973,3.9736,0,0,0,0,0,0,3.8757,3.8783,3.9018,3.9027,3.8854,3.8959,3.8975,3.9033,3.9114,3.9121,3.9041,3.9034,3.9182,3.9199,3.9217,3.9422,3.9259,3.9269,3.9275,3.9725,3.9732,3.9738,0,0,0,0,0,0,3.8751,3.8779,3.9012,3.8904,3.8933,3.8969,3.9035,3.9039,3.908,3.9127,3.9133,3.9078,3.9179,3.9201,3.9343,3.9427,3.9274,3.9284,3.9718,3.9727,3.9735,3.9834,0,0,0,0,0,0,3.8742,3.8777,3.8839,3.8906,3.8939,3.9134,3.904,3.9045,3.9099,3.9091,3.9163,3.917,3.9177,3.9327,3.9353,3.9439,3.9292,3.971,3.9722,3.9732,3.9823,3.9845,3.9863,0,0,0,0,0,3.873,3.8861,3.8843,3.8872,3.9018,3.9139,3.9158,3.9162,3.9106,3.9171,3.9202,3.9168,3.9413,3.9342,3.9371,3.9461,3.9705,3.9718,3.9731,3.9814,3.984,3.9863,0,0,0,0,0,0,3.8803,3.8869,3.885,3.9006,3.9068,3.9129,3.921,3.9189,3.9268,3.9257,3.9259,3.9276,3.9423,3.9456,3.9375,3.9631,3.9551,3.9571,3.9604,3.9629,3.9649,3.9638,3.9301,0,0,0,0,0,3.8837,3.8929,3.8982,3.9115,3.9147,3.9174,3.9226,3.9224,3.9288,3.9314,3.9355,3.942,3.9512,3.9572,3.9659,3.9828,3.9845,3.9905,3.9925,3.9941,3.9958,4.0054,4.0082,3.9781,3.9781,3.978,0,0,3.8908,3.8956,3.9014,3.9131,3.9178,3.9275,3.9196,3.93,3.9373,3.933,3.9467,3.95,3.9572,3.9729,3.98,3.9761,4.0046,3.9957,3.997,3.9979,4.0071,4.0099,4.0124,3.979,3.9788,3.9787,0,0,3.9088,3.9133,3.9249,3.9299,3.9373,3.939,3.9419,3.9485,3.9506,3.9643,3.9614,3.9701,3.9858,3.9913,3.9961,4.0167,4.0141,4.0195,4.03,4.0394,4.0418,4.0439,4.0516,4.0543,4.0212,4.0212,4.0213,0,3.9168,3.9311,3.9312,3.9421,3.9475,3.9441,3.9562,3.961,3.9709,3.9748,3.9703,3.9903,3.9949,4.012,4.0171,4.021,4.0245,4.0187,4.0414,4.0435,4.0455,4.0528,4.0557,4.0219,4.0218,4.0217,4.0217,0,3.9408,3.9508,3.9594,3.9691,3.9754,3.9868,3.9889,3.9954,3.9947,3.9971,4.0114,4.0168,4.0268,4.0308,4.0302,4.048,4.0455,4.0412,4.0332,4.049,4.0559,4.0587,4.0228,4.0226,4.0224,4.0222,0,0,3.9635,3.9734,3.9765,3.9811,3.9891,3.997,4.0084,4.0181,4.0239,4.0309,4.0407,4.0543,4.0505,4.056,4.0561,4.0643,4.0807,4.0591,4.0593,4.0632,4.1012,4.1044,4.1076,4.079,4.0796,4.08,4.1006,0,3.9823,4.0023,4.0029,4.0212,4.0307,4.0279,4.0379,4.0441,4.0467,4.0554,4.0583,4.0681,4.0622,4.0656,4.0736,4.077,4.0884,4.0755,4.0884,4.0889,4.0869,4.1112,4.1146,4.1338,4.1033,4.1038,4.1041,0,4.0068,4.0148,4.0341,4.0412,4.0452,4.0541,4.0634,4.0715,4.0787,4.08,4.0864,4.0854,4.0974,4.089,4.1058,4.097,4.1024,4.105,4.1057,4.107,4.0975,4.1134,4.1399,4.1429,4.1083,4.1079,4.1076,0,4.0219,4.0374,4.051,4.0549,4.0634,4.0699,4.0738,4.0804,4.0864,4.0945,4.0984,4.1078,4.1131,4.1205,4.1222,4.1159,4.1392,4.1308,4.1409,4.1409,4.146,4.1457,4.1739,4.1492,4.1491,4.1491,4.149,0,4.0429,4.0549,4.0579,4.0663,4.0798,4.0806,4.094,4.0975,4.1035,4.1127,4.1108,4.1196,4.1212,4.1304,4.1318,4.1458,4.1481,4.1497,4.15,4.15,4.1499,4.1536,4.1524,4.1498,4.1497,4.1495,4.1494,0,4.0619,4.0644,4.0792,4.0861,4.0882,4.0979,4.1039,4.1122,4.1147,4.1265,4.1293,4.1334,4.1442,4.1466,4.1594,4.1604,4.177,4.1758,4.1746,4.1746,4.1847,4.1838,4.2165,4.221,4.1931,4.1933,4.1935,0,4.0752,4.0844,4.0925,4.0986,4.1028,4.1125,4.1187,4.1199,4.1265,4.1355,4.1428,4.1534,4.1619,4.1794,4.1836,4.1935,4.1928,4.2036,4.1942,4.1941,4.1933,4.1928,4.1939,4.2054,4.2057,4.2059,4.2061,0,4.0988,4.0996,4.1085,4.118,4.1254,4.1329,4.1401,4.1452,4.1475,4.155,4.1661,4.1727,4.1859,4.1966,4.2067,4.2109,4.2091,4.209,4.2119,4.2121,4.2111,4.2121,4.1797,4.2083,4.208,4.2079,4.2078,4.2077,4.1155,4.1237,4.1308,4.1409,4.1465,4.1533,4.1615,4.1652,4.1744,4.1852,4.1855,4.1977,4.205,4.2183,4.2232,4.2329,4.2296,4.2338,4.2349,4.2359,4.237,4.2095,4.2347,4.2347,4.2346,4.2346,4.2345,0,4.1392,4.1436,4.1529,4.1631,4.1712,4.1687,4.1767,4.1836,4.1943,4.2013,4.2098,4.2228,4.2333,4.2385,4.2489,4.2558,4.2552,4.2585,4.2581,4.2592,4.2392,4.2357,4.2588,4.2588,4.2588,4.2588,4.2588,4.2588,4.1524,4.1663,4.1681,4.1849,4.1893,4.2012,4.206,4.2125,4.2181,4.2326,4.2413,4.2446,4.2511,4.2621,4.2717,4.273,4.2771,4.2809,4.2818,4.263,4.2605,4.2582,4.255,4.2817,4.2817,4.301,4.3012,4.3013]},{"header":{"parameterUnit":"m.s-1","parameterCategory":1,"la1":30.2991,"la2":30.254,"lo1":-89.0895,"lo2":-89.0444,"dy":0.0017,"dx":0.0017,"nx":28,"ny":28,"refTime":"2023-10-21T09:00:00:Z","depth":0,"parameterNumber":3,"parameterNumberName":"V-component_of_WINDS"},"data":[0,0,0,0,0,0,0,0,0,0,0,0,0,0,0,0,0,0,0,0,0,0,0,0,0,0,0,0,0,0,0,0,0,0,0,0,0,0,0,0,0,0,0,0,0,0,0,0,0,0,0,0,0,0,0,0,0,0,-2.1901,-2.1901,0,-2.1957,-2.1958,-2.1958,-2.197,-2.197,-2.197,-2.1969,-2.2024,-2.2026,-2.2027,0,0,0,0,0,0,0,0,0,0,0,0,0,-2.1801,-2.1802,-2.19,-2.1901,-2.1902,-2.1957,-2.1958,-2.1959,-2.197,-2.197,-2.1969,-2.1969,-2.2023,-2.2025,-2.2028,0,0,0,0,0,0,0,0,0,0,0,0,0,-2.1849,-2.1803,-2.19,-2.1915,-2.1916,-2.1957,-2.1958,-2.1959,-2.1971,-2.197,-2.1969,-2.1969,-2.2023,-2.2025,-2.2028,-2.2057,0,0,-2.2036,-2.2038,0,0,0,0,0,0,0,0,-2.1846,-2.1853,-2.1912,-2.1914,-2.1916,-2.1956,-2.1943,-2.1992,-2.1971,-2.195,-2.1969,-2.1968,-2.2002,-2.2006,-2.2018,-2.206,-2.2062,-2.2037,-2.2038,-2.204,-2.204,0,0,0,0,0,0,0,-2.1843,-2.185,-2.1923,-2.1913,-2.1915,-2.1917,-2.1924,-2.1952,-2.1978,-2.1952,-2.1953,-2.1959,-2.2003,-2.2015,-2.2019,-2.2063,-2.2037,-2.2039,-2.2041,-2.2042,-2.2133,-2.2134,0,0,0,0,0,0,-2.1837,-2.1847,-2.1921,-2.1925,-2.1879,-2.192,-2.1927,-2.1944,-2.1978,-2.1983,-2.196,-2.196,-2.2011,-2.2016,-2.2021,-2.2058,-2.2039,-2.2042,-2.2044,-2.2132,-2.2133,-2.2134,0,0,0,0,0,0,-2.1835,-2.1844,-2.1919,-2.1886,-2.1896,-2.1922,-2.1941,-2.1945,-2.1958,-2.1984,-2.1989,-2.1968,-2.2011,-2.2017,-2.2049,-2.206,-2.2043,-2.2046,-2.2131,-2.2132,-2.2133,-2.2132,0,0,0,0,0,0,-2.1832,-2.1843,-2.1855,-2.1887,-2.1898,-2.1946,-2.1942,-2.1947,-2.1963,-2.1963,-2.1993,-2.1998,-2.2011,-2.2045,-2.2051,-2.2064,-2.2048,-2.213,-2.2132,-2.2133,-2.2131,-2.2133,-2.2135,0,0,0,0,0,-2.1829,-2.1851,-2.1855,-2.1864,-2.1913,-2.1946,-2.1953,-2.1968,-2.1964,-2.1976,-2.1993,-2.1997,-2.2058,-2.2048,-2.2056,-2.2069,-2.2129,-2.2131,-2.2133,-2.213,-2.2133,-2.2135,0,0,0,0,0,0,-2.1818,-2.1856,-2.186,-2.1894,-2.1917,-2.1948,-2.1964,-2.197,-2.1994,-2.1993,-2.201,-2.2017,-2.2047,-2.2061,-2.2049,-2.21,-2.2094,-2.2097,-2.2089,-2.2091,-2.2093,-2.2088,-2.205,0,0,0,0,0,-2.1821,-2.1845,-2.1876,-2.1903,-2.1914,-2.1937,-2.1952,-2.1962,-2.1986,-2.1996,-2.2015,-2.2038,-2.2062,-2.2078,-2.2102,-2.2134,-2.214,-2.2147,-2.2149,-2.215,-2.2152,-2.2171,-2.2174,-2.2139,-2.2139,-2.2139,0,0,-2.1824,-2.1848,-2.1862,-2.1901,-2.192,-2.1945,-2.1945,-2.1971,-2.1989,-2.1999,-2.203,-2.2046,-2.2072,-2.2104,-2.2119,-2.2116,-2.2164,-2.2152,-2.2153,-2.2155,-2.2173,-2.2176,-2.2179,-2.2141,-2.214,-2.214,0,0,-2.1843,-2.1864,-2.1888,-2.1908,-2.1938,-2.1953,-2.1959,-2.199,-2.2001,-2.2033,-2.2041,-2.2063,-2.2104,-2.2123,-2.2138,-2.2166,-2.217,-2.2174,-2.2182,-2.22,-2.2202,-2.2205,-2.2215,-2.2218,-2.2176,-2.2176,-2.2176,0,-2.1844,-2.1882,-2.19,-2.1926,-2.1943,-2.1956,-2.198,-2.1998,-2.2033,-2.2045,-2.2042,-2.2096,-2.2114,-2.2151,-2.2158,-2.217,-2.2177,-2.2169,-2.2201,-2.2203,-2.2206,-2.2215,-2.2219,-2.2176,-2.2176,-2.2176,-2.2176,0,-2.1881,-2.1907,-2.1924,-2.1959,-2.1978,-2.2003,-2.2025,-2.2042,-2.2051,-2.2067,-2.2099,-2.2122,-2.2151,-2.2161,-2.2169,-2.2199,-2.2197,-2.2198,-2.2192,-2.2209,-2.2218,-2.2222,-2.2176,-2.2176,-2.2176,-2.2176,0,0,-2.1893,-2.194,-2.1946,-2.1962,-2.1997,-2.2017,-2.2043,-2.2073,-2.2087,-2.2112,-2.2133,-2.217,-2.2171,-2.2188,-2.2198,-2.2214,-2.2235,-2.2213,-2.2214,-2.2216,-2.2269,-2.2268,-2.2272,-2.2239,-2.224,-2.224,-2.2267,0,-2.1916,-2.1964,-2.1982,-2.202,-2.2045,-2.2058,-2.2081,-2.2104,-2.212,-2.2143,-2.216,-2.2185,-2.2185,-2.2195,-2.2211,-2.2229,-2.2246,-2.2228,-2.2259,-2.2259,-2.2251,-2.2277,-2.2276,-2.2299,-2.2271,-2.2271,-2.2272,0,-2.1948,-2.1975,-2.2016,-2.2049,-2.206,-2.208,-2.2109,-2.2131,-2.2158,-2.2169,-2.2189,-2.2199,-2.2226,-2.222,-2.2258,-2.2245,-2.2259,-2.227,-2.2271,-2.2274,-2.2266,-2.2279,-2.2308,-2.2311,-2.2278,-2.2277,-2.2277,0,-2.1953,-2.1999,-2.203,-2.2044,-2.2082,-2.2096,-2.2113,-2.2139,-2.2156,-2.2182,-2.2193,-2.2221,-2.2236,-2.2258,-2.2275,-2.2269,-2.2312,-2.2307,-2.232,-2.232,-2.2327,-2.2326,-2.2357,-2.2338,-2.2338,-2.2338,-2.2338,0,-2.1976,-2.2,-2.2032,-2.2051,-2.208,-2.21,-2.2127,-2.2145,-2.2169,-2.2191,-2.2204,-2.2224,-2.2247,-2.227,-2.2284,-2.2313,-2.232,-2.2328,-2.2331,-2.2327,-2.2325,-2.2335,-2.2333,-2.2339,-2.2338,-2.2338,-2.2338,0,-2.1984,-2.2007,-2.2042,-2.2076,-2.2086,-2.2105,-2.2134,-2.2153,-2.217,-2.2198,-2.2206,-2.2232,-2.226,-2.2281,-2.2316,-2.2326,-2.2357,-2.2361,-2.2348,-2.235,-2.2362,-2.236,-2.2399,-2.2405,-2.2382,-2.2383,-2.2383,0,-2.1997,-2.2017,-2.2054,-2.2071,-2.2088,-2.2114,-2.2132,-2.2153,-2.2172,-2.2205,-2.2219,-2.2249,-2.2273,-2.2318,-2.234,-2.2367,-2.2371,-2.2383,-2.2375,-2.237,-2.2371,-2.2369,-2.2371,-2.2383,-2.2384,-2.2384,-2.2384,0,-2.2017,-2.2028,-2.2054,-2.2085,-2.2106,-2.2131,-2.2156,-2.2168,-2.2194,-2.2214,-2.2244,-2.2263,-2.2301,-2.233,-2.236,-2.2376,-2.2384,-2.2387,-2.2391,-2.2386,-2.2377,-2.2382,-2.235,-2.2385,-2.2385,-2.2385,-2.2385,-2.2385,-2.2028,-2.2046,-2.2076,-2.2105,-2.2126,-2.2149,-2.2169,-2.2189,-2.2215,-2.2248,-2.2259,-2.229,-2.2317,-2.2359,-2.2376,-2.24,-2.2399,-2.2406,-2.2407,-2.2408,-2.2408,-2.2375,-2.2406,-2.2406,-2.2406,-2.2406,-2.2406,0,-2.2048,-2.2068,-2.2095,-2.213,-2.2153,-2.216,-2.2189,-2.2207,-2.2234,-2.226,-2.2284,-2.2319,-2.2347,-2.2372,-2.2402,-2.2416,-2.2421,-2.2423,-2.2422,-2.2425,-2.2407,-2.24,-2.2419,-2.2419,-2.2419,-2.2419,-2.2419,-2.2419,-2.2061,-2.2093,-2.2107,-2.2149,-2.2169,-2.22,-2.2216,-2.2237,-2.2258,-2.2296,-2.2321,-2.2337,-2.2363,-2.2394,-2.2421,-2.2428,-2.2437,-2.2439,-2.2446,-2.2428,-2.2427,-2.2425,-2.2418,-2.2441,-2.2441,-2.2463,-2.2463,-2.2463]}]]